Погода в Колывани

Погода в Колывани : погода сейчас, прогноз погоды и архив. Всё, что Вы хотите узнать о погоде в Колывани!

Хотите узнать прогноз погоды в Колывани? Тогда Вам сюда: Погода в Колывани

Поиск расширенной информации на нашем сайте:

Другие новости

Новости СМИ2

Главная страница сайта

Новости сайта

03.07.2017

Напоминаем, что на нашем специализированном сайте Метеоцентр.Азия вы можете получить высокодетализированные автоматические прогнозы погоды по пунктам России, СНГ и мира в авиационном формате (включающие направление и скорость ветра, видимость, явления погоды, количество и форму облачности, нижнюю и верхнюю границу облачности).


Погода в Колывани - сегодня

Время (UTC), дата Ветер
(°,м/с) 
Видим.   Явления Облачность Т
(°С)
Тd
(°С)
f(%) Тe
(°С)
Pmin
(гПа)
dP
(гПа)
Po
(мм)
O2
(г/м3)
Тmin Tmax R s Состояние
почвы
03 21.02.18 180 (Ю) 20000 м    9/3 1000 м верхняя 
[Sc|Ci sp]
-12.6 -14.3 87 -15  1028.7  -0.9  757  321  -14         
06 21.02.18 180 (Ю) 20000 м    9/0 верхняя 
[Ci sp]
-6.7 -11.9 66 -6  1027.3  -0.9  756  313           
09 21.02.18 140 (ЮВ) 20000 м    6/0 верхняя 
[Ci sp]
-4.6 -11 61 -6  1025.7  -1.5  755  310           
12 21.02.18 120 (ЮВ) 20000 м    6/0 верхняя 
[Ci sp]
-6.9 -11.1 72 -7  1024  -1.8  754  313    -4       
15 21.02.18 100 (В) 20000 м    8/3 1000 м верхняя 
[Sc|Ci sp]
-8.2 -12 74 -11  1021.7  -2.3  752  313           
18 21.02.18 090 (В) 20000 м    9/9 1000 м 
[Sc]
-7.9 -11.5 75 -11  1019.6  -2.1  750  312           
21 21.02.18 080 (В) 20000 м    9/9 1000 м 
[Sc]
-7.8 -11.4 75 -11  1017  -2.5  749  312           
00 22.02.18 100 (В) 20000 м    8/8 1000 м 
[Sc]
-6.8 -11.5 69 -10  1014.5  -2.4  747  310  -8.8      32  неравномерный
сухой снег
100% 
03 22.02.18 170 (Ю) 20000 м    10/8 1000 м верхняя 
[Sc|Ci sp]
-5.6 -10.5 68 -8  1013.5  -0.9  746  308           
06 22.02.18 200 (Ю) 4000 м  слаб. ливневой снег  10/10 300 м кучево-дожд. 
[Cb cap]
-4.3 -6.6 84 -7  1012.9  -0.5  746  306           
09 22.02.18 220 (ЮЗ) 4000 м  слаб. ливневой снег  10/10 300 м кучево-дожд. 
[Cb cap]
-3.4 -5.4 86 -6  1013.4  0.6  746  305           
12 22.02.18 220 (ЮЗ) 5{12}  20000 м  позёмок{ливн. осадки}  10/10 600 м кучево-дожд. 
[Cb cap]
-7.9 -11.4 76 -12  1017.2  3.4  749  312    -3.3  0.7     
15 22.02.18 230 (ЮЗ) 20000 м    3/3 1000 м 
[Sc]
-11.3 -14.3 78 -15  1020.8  3.2  751  317           
18 22.02.18 220 (ЮЗ) 20000 м    ясно 
-13.6 -15.8 83 -17  1023.1  2.1  753  321           
21 22.02.18 200 (Ю) 20000 м    3/0 верхняя 
[Ci fib]
-15.4 -17.4 85 -19  1024.1  0.8  753  323           
00 23.02.18 180 (Ю) 20000 м    4/0 верхняя 
[Ci fib]
-16 -18 85 -20  1023.8  -0.2  753  324  -16.3      34  неравномерный
сухой снег
100% 
03 23.02.18 180 (Ю) 20000 м    10/10 1000 м 
[Sc]
-13.4 -15.2 86 -18  1022.7  -0.9  752  320           
06 23.02.18 200 (Ю) 4000 м  слаб. ливневой снег  10/6 600 м кучево-дожд., верхняя 
[Cb cap|Cs]
-9.7 -12.4 81 -14  1021.3  -1.1  752  315           
12 23.02.18 210 (ЮЗ) 20000 м  {ливн. осадки}  8/0 верхняя 
[Ci]
-11.8 -15 77 -15  1021.8  0.6  752  318    -8.7  0.5     
15 23.02.18 210 (ЮЗ) 20000 м    ясно 
-14 -16.5 81 -18  1022.3  0.4  752  321           
18 23.02.18 210 (ЮЗ) 20000 м    ясно 
-15.3 -17.1 86 -18  1022.6  0.2  752  323           
21 23.02.18 200 (Ю) 20000 м    ясно 
-16.3 -18.3 84 -16  1022.7  -0.1  752  324           
00 24.02.18 190 (Ю) 20000 м    ясно 
-17.8 -20 83 -18  1022.7  -0.1  752  326  -17.8      34  неравномерный
сухой снег
100% 
03 24.02.18 200 (Ю) 20000 м    ясно 
-16.9 -19.1 83 -17  1022.5  -0.1  752  325  -18.7         
06 24.02.18 230 (ЮЗ) 20000 м    ясно 
-14.2 -16.6 82 -16  1022.7  0.4  752  321           
Время (UTC), дата Ветер
(°,м/с) 
Видим.   Явления Облачность Т
(°С)
Тd
(°С)
f(%) Тe
(°С)
Pmin
(гПа)
dP
(гПа)
Po
(мм)
O2
(г/м3)
Тmin Tmax R s Состояние
почвы

Для получения пояснительной информации подведите курсор к названию столбца.

ПОГОДА в Колывани - архив

Всё, что Вы хотите узнать о погоде в Колывани - удобно и подробно!

Выберите нужную дату (начиная с 1 января 2015* года) и нажмите кнопку "Найти".
Будут отображены архивные сводки погоды по пункту Колывань, начиная с указанной даты.


Отображать данные в формате CSV (для использования в таблицах Excel)


Внимание! Наш архив погоды предназначен исключительно для личного некоммерческого использования в познавательных целях. Если Вам необходимы официальные справки о состоянии погоды (для производственных, юридических, коммерческих и т.п. целей), обращайтесь в органы Росгидромета.

*Примечание: данная дата относится к архиву по метеостанциям СССР (Россия, СНГ, Балтия).
Архив по метеостанциям Зарубежной Европы и Азии (кроме Китая) хранится 10 дней, по другим регионам земного шара (Китай, Африка, Америка, Австралия, Океания) - 1 день.

Колывань - район местоположения метеостанции


Название, широта, долгота, высота метеостанции:
Колывань 55.3°ш. 82.8°д. 137 м над ур. моря [Российская Федерация]

Дополнительная информация

В oтличие oт бoльшинства пoгoдных сайтoв мы публикуем пoдрoбную метеoинфoрмацию в детальнoм прoфессиoнальнoм фoрмате.

Характеристики температуры и влажнoсти вoздуха измеряются на высoте 2 м в тени вдали oт зданий и деревьев.
Скoрoсть ветра измеряется на высoте 10 м (на урoвне рoста челoвека скoрoсть ветра ниже в 1.5-2 раза). Если метеoстанция нахoдится в гoрoде или в лесу, тo скoрoсть ветра занижена на 2-4 м/с пo сравнению с oткрытым местoм. Скoрoсть ветра над акватoриями крупных рек и oзёр, а также на вершинах хoлмoв на 2-5 м/с выше, чем в oбычных услoвиях.
Атмoсфернoе давление в разных тoчках местнoсти мoжет значительнo oтличаться oт давления на метеoстанции, в зависимoсти oт услoвий рельефа (при пoдъёме на 10 м давление пoнижается примернo на 1 мм рт.ст.).